TimePST,TemperatureF,Dew PointF,Humidity,Sea Level PressureIn,VisibilityMPH,Wind Direction,Wind SpeedMPH,Gust SpeedMPH,PrecipitationIn,Events,Conditions,WindDirDegrees,DateUTC
12:56 AM,43.0,35.1,74,30.13,10.0,Calm,Calm,-,N/A,,Clear,0,2013-11-29 08:56:00
1:56 AM,37.9,35.1,89,30.15,10.0,Calm,Calm,-,N/A,,Mostly Cloudy,0,2013-11-29 09:56:00
2:56 AM,39.9,36.0,86,30.16,10.0,Calm,Calm,-,N/A,,Overcast,0,2013-11-29 10:56:00
3:56 AM,41.0,36.0,82,30.16,10.0,West,4.6,-,N/A,,Overcast,270,2013-11-29 11:56:00
4:56 AM,42.1,36.0,79,30.17,10.0,Calm,Calm,-,N/A,,Overcast,0,2013-11-29 12:56:00
5:56 AM,41.0,37.0,86,30.19,10.0,NE,3.5,-,N/A,,Overcast,40,2013-11-29 13:56:00
6:56 AM,42.1,37.0,82,30.21,10.0,Calm,Calm,-,N/A,,Overcast,0,2013-11-29 14:56:00
7:56 AM,46.0,37.0,71,30.23,10.0,Calm,Calm,-,N/A,,Overcast,0,2013-11-29 15:56:00
8:56 AM,46.0,39.0,76,30.25,10.0,South,3.5,-,N/A,,Overcast,180,2013-11-29 16:56:00
9:56 AM,50.0,35.1,57,30.25,10.0,Calm,Calm,-,N/A,,Scattered Clouds,0,2013-11-29 17:56:00
10:56 AM,50.0,36.0,59,30.26,10.0,SSE,4.6,-,N/A,,Overcast,160,2013-11-29 18:56:00
11:56 AM,52.0,37.9,59,30.22,10.0,ENE,5.8,-,N/A,,Overcast,70,2013-11-29 19:56:00
12:56 PM,52.0,37.9,59,30.21,10.0,ESE,3.5,-,N/A,,Scattered Clouds,120,2013-11-29 20:56:00
1:56 PM,53.1,39.0,59,30.20,10.0,Calm,Calm,-,N/A,,Overcast,0,2013-11-29 21:56:00
2:56 PM,54.0,41.0,62,30.19,10.0,Calm,Calm,-,0.00,Rain,Light Rain,0,2013-11-29 22:56:00
3:56 PM,54.0,39.0,57,30.20,10.0,Calm,Calm,-,0.00,,Overcast,0,2013-11-29 23:56:00
4:56 PM,55.0,42.1,62,30.20,10.0,Calm,Calm,-,N/A,,Overcast,0,2013-11-30 00:56:00
5:56 PM,51.1,41.0,68,30.22,10.0,SW,3.5,-,N/A,,Overcast,230,2013-11-30 01:56:00
6:56 PM,48.9,42.1,77,30.24,10.0,West,4.6,-,N/A,,Overcast,270,2013-11-30 02:56:00
7:56 PM,48.9,42.1,77,30.25,10.0,Calm,Calm,-,N/A,,Scattered Clouds,0,2013-11-30 03:56:00
8:56 PM,46.9,39.9,77,30.27,10.0,Calm,Calm,-,N/A,,Mostly Cloudy,0,2013-11-30 04:56:00
9:56 PM,42.1,37.9,85,30.27,10.0,Calm,Calm,-,N/A,,Clear,0,2013-11-30 05:56:00
10:56 PM,44.1,39.0,82,30.27,10.0,Calm,Calm,-,N/A,,Scattered Clouds,0,2013-11-30 06:56:00
11:56 PM,42.1,37.9,85,30.27,10.0,West,3.5,-,N/A,,Partly Cloudy,270,2013-11-30 07:56:00